TimeEST,TemperatureF,Dew PointF,Humidity,Sea Level PressureIn,VisibilityMPH,Wind Direction,Wind SpeedMPH,Gust SpeedMPH,PrecipitationIn,Events,Conditions,WindDirDegrees,DateUTC
12:54 AM,30.0,17.1,59,30.29,10.0,Calm,Calm,-,N/A,,Clear,0,2012-12-06 05:54:00
1:54 AM,28.0,17.1,63,30.31,10.0,Calm,Calm,-,N/A,,Clear,0,2012-12-06 06:54:00
2:54 AM,28.0,18.0,66,30.32,10.0,Calm,Calm,-,N/A,,Clear,0,2012-12-06 07:54:00
3:54 AM,28.0,18.0,66,30.31,10.0,NW,3.5,-,N/A,,Clear,310,2012-12-06 08:54:00
4:54 AM,27.0,19.0,72,30.32,10.0,NW,3.5,-,N/A,,Clear,310,2012-12-06 09:54:00
5:54 AM,27.0,18.0,69,30.32,10.0,North,5.8,-,N/A,,Clear,360,2012-12-06 10:54:00
6:54 AM,26.1,18.0,71,30.35,10.0,NNE,3.5,-,N/A,,Clear,20,2012-12-06 11:54:00
7:54 AM,25.0,18.0,75,30.37,10.0,Calm,Calm,-,N/A,,Clear,0,2012-12-06 12:54:00
8:54 AM,30.9,18.0,59,30.38,10.0,Calm,Calm,-,N/A,,Clear,0,2012-12-06 13:54:00
9:54 AM,34.0,17.1,50,30.39,10.0,Variable,4.6,-,N/A,,Clear,0,2012-12-06 14:54:00
10:54 AM,36.0,18.0,48,30.37,10.0,North,3.5,-,N/A,,Clear,10,2012-12-06 15:54:00
11:54 AM,37.9,19.9,48,30.34,10.0,North,4.6,-,N/A,,Clear,10,2012-12-06 16:54:00
12:54 PM,37.0,19.9,50,30.32,10.0,Calm,Calm,-,N/A,,Clear,0,2012-12-06 17:54:00
1:54 PM,39.0,19.0,45,30.30,10.0,SW,3.5,-,N/A,,Clear,220,2012-12-06 18:54:00
2:54 PM,37.9,18.0,45,30.29,10.0,Calm,Calm,-,N/A,,Clear,0,2012-12-06 19:54:00
3:54 PM,37.9,17.1,43,30.30,10.0,Calm,Calm,-,N/A,,Clear,0,2012-12-06 20:54:00
4:54 PM,33.1,19.0,56,30.30,10.0,Calm,Calm,-,N/A,,Clear,0,2012-12-06 21:54:00
5:54 PM,32.0,19.0,59,30.30,10.0,Calm,Calm,-,N/A,,Clear,0,2012-12-06 22:54:00
6:54 PM,30.9,19.9,64,30.31,10.0,Calm,Calm,-,N/A,,Clear,0,2012-12-06 23:54:00
7:54 PM,28.9,19.9,69,30.31,10.0,Calm,Calm,-,N/A,,Clear,0,2012-12-07 00:54:00
8:54 PM,28.0,19.9,72,30.31,10.0,Calm,Calm,-,N/A,,Clear,0,2012-12-07 01:54:00
9:54 PM,27.0,19.9,75,30.30,10.0,Calm,Calm,-,N/A,,Clear,0,2012-12-07 02:54:00
10:54 PM,27.0,19.9,75,30.30,10.0,Calm,Calm,-,N/A,,Clear,0,2012-12-07 03:54:00
11:54 PM,27.0,19.9,75,30.30,10.0,Calm,Calm,-,N/A,,Clear,0,2012-12-07 04:54:00